User: anonymous   Login
Location: Unspecified
(0.0000°N, 0.0000°E)
Time: 00:48:41
(UTC+00:00)
Language:

STARLINK-5977 - Orbit

View from above orbital plane
View from above orbital plane
View from above satellite
View from above satellite

Ground track
Ground track

The orbit is defined by the following mean orbital elements,

1 56791U          26145.33619926 +.00000000 +00000-0 +20822-4 0 00006
2 56791  69.9983 151.1048 0003378 268.8857  91.1915 14.98331682    00
Epoch (UTC): 25 May 2026 08:04:07
Eccentricity: 0.0003378
inclination: 69.9983°
perigee height: 570 km
apogee height: 574 km
right ascension of ascending node: 151.1048°
argument of perigee: 268.8857°
revolutions per day: 14.98331682
mean anomaly at epoch: 91.1915°

The dashed part of the orbit path shows where the satellite is in the earth's shadow,  

DLR